Wetbulb
45.01 44.95 45.06 44.83 44.66 44.75 44.22 44.83 45.59 46.79 47.10 47.50 47.96 48.75 50.33 50.98 53.98 52.33 48.98 50.07 48.13 44.70 45.62 46.02 45.94 41.58 42.32 42.05 38.75 40.54 41.10 42.44 43.07 38.71 38.73 38.53 37.36 38.52 38.01 39.50 36.59 36.34 35.34 35.80 36.12 33.75 30.70 42.16 40.98 37.33 40.94 41.81 43.02 43.50
44.41 44.20 44.66 44.68 44.56 44.47 44.03 44.38 45.29 46.46 46.70 47.23 47.70 48.90 49.98 50.75 53.80 52.96 47.98 49.83 50.53 46.51 46.61 47.97 48.25 47.71 45.70 45.42 41.83 41.32 42.09 42.93 45.57 42.05 40.56 39.15 36.47 37.68 36.83 35.02 41.93 36.66 39.42 37.84 38.16 38.09 42.40 43.02 42.52 43.23 45.26 42.98 42.89 42.08
44.30 44.45 44.53 44.74 44.36 44.40 44.11 44.09 45.06 46.24 46.43 47.08 47.59 48.88 50.28 50.65 53.97 52.86 48.64 49.13 48.63 45.81 45.91 45.65 44.79 47.89 48.90 48.04 48.02 42.47 43.21 45.12 44.43 45.15 43.06 40.67 37.43 39.31 33.89 35.04 35.60 37.93 39.30 37.78 38.79 38.31 39.24 41.50 42.27 42.86 44.53 43.31 43.52 43.27
44.16 44.29 44.41 44.53 44.27 43.97 43.97 43.96 44.68 45.94 46.25 46.76 47.75 48.80 49.62 50.67 53.86 52.67 48.77 49.58 49.42 47.77 42.91 44.02 48.72 46.51 49.24 48.70 47.67 47.51 46.18 46.14 46.36 46.57 43.65 41.60 40.62 41.33 39.95 38.40 37.21 37.96 38.73 38.03 37.04 38.60 40.02 41.46 41.79 42.58 42.46 42.82 42.60 42.83
44.01 44.06 44.26 44.20 44.11 43.62 43.80 43.74 44.37 45.83 45.91 46.36 47.16 48.09 49.19 50.69 53.47 52.65 51.09 50.45 51.46 48.07 43.28 43.45 46.74 47.32 48.25 47.93 46.47 47.05 46.27 45.84 44.31 43.23 43.27 41.65 41.45 40.19 39.91 38.98 38.09 39.96 39.32 37.92 37.81 42.43 41.35 40.26 42.16 43.22 41.83 41.28 41.42 41.23
43.99 44.02 43.99 43.58 43.94 43.60 43.59 43.42 44.14 45.53 45.67 46.20 46.57 47.51 50.34 51.12 53.10 50.58 45.62 50.31 51.18 50.60 46.00 39.63 46.49 44.95 46.59 47.34 46.05 45.22 46.10 46.08 45.41 45.15 43.56 43.13 43.41 41.35 36.47 36.70 43.16 42.40 42.94 43.13 41.10 42.49 42.87 42.92 42.62 42.86 41.34 41.17 41.18 40.12
43.50 43.86 43.97 43.41 43.80 43.58 43.28 43.10 44.16 44.93 45.82 45.70 46.32 47.32 48.73 52.17 52.10 47.02 45.04 48.30 51.69 51.30 44.63 38.68 39.63 44.90 45.58 46.85 46.57 45.83 46.66 45.48 45.22 43.48 42.74 42.20 41.16 40.86 40.41 38.45 42.58 41.96 41.52 41.67 42.96 42.85 39.82 40.96 39.98 41.73 41.34 41.03 41.11 38.78
43.82 43.89 43.97 43.89 43.87 43.43 42.92 43.04 44.43 44.87 45.35 45.46 46.43 48.05 49.17 52.16 50.21 47.60 48.88 50.72 50.87 46.73 45.15 36.38 37.41 41.12 45.17 43.91 42.29 44.85 44.09 44.63 43.65 42.70 41.58 41.37 40.42 40.35 37.09 41.49 40.69 41.07 40.90 40.33 39.57 40.84 41.26 41.26 40.47 38.64 37.78 36.83 35.20 35.00
43.82 43.79 43.91 43.74 43.52 42.88 42.58 43.69 44.55 45.02 44.86 44.89 46.33 48.06 49.89 47.60 44.84 46.20 49.17 48.95 48.01 46.16 38.19 37.41 34.85 34.98 44.23 41.65 42.34 42.81 43.65 41.13 42.24 41.12 40.44 40.09 39.16 34.58 40.65 41.57 39.60 39.97 38.87 37.73 37.67 38.29 38.88 37.59 36.35 35.49 34.92 34.37 34.44 34.27
43.77 43.69 43.62 43.35 42.80 42.41 42.65 43.89 44.67 44.29 43.74 44.99 45.34 45.17 40.56 44.74 48.61 48.02 45.19 42.65 40.46 40.69 40.64 38.32 41.55 37.11 40.61 40.04 37.85 38.66 38.69 37.19 33.89 37.67 38.41 35.69 34.54 41.61 42.03 41.82 41.16 40.54 38.78 38.01 34.87 34.10 34.97 32.50 33.77 34.06 34.26 34.89 35.02 34.31
43.77 43.55 43.15 42.68 42.26 41.86 43.25 44.08 43.75 43.60 44.20 45.73 42.29 39.75 45.08 48.21 44.45 42.09 37.56 37.19 38.52 34.94 38.60 39.42 40.44 37.52 40.95 37.11 36.06 37.40 34.27 33.74 32.68 33.58 35.19 33.37 34.00 37.72 37.88 38.72 40.55 39.33 38.83 38.35 38.56 36.88 37.33 37.00 35.54 34.23 33.68 34.22 33.98 33.68
43.31 42.93 42.52 42.09 41.68 42.35 42.93 43.82 43.55 39.68 35.15 38.62 42.15 44.03 42.76 39.88 37.84 35.11 34.69 34.16 34.28 32.72 36.49 37.67 37.98 39.47 38.09 39.62 35.97 35.50 33.10 32.37 31.11 33.69 33.02 29.72 32.64 32.63 35.98 37.27 38.47 38.38 38.85 39.02 39.36 38.40 37.85 36.01 35.11 34.32 33.56 33.06 33.44 34.16
42.76 42.25 42.02 41.61 41.68 42.53 42.62 43.60 43.32 41.77 41.41 43.01 40.88 35.83 38.05 35.15 32.22 29.98 28.31 30.30 31.52 35.07 34.68 34.80 34.28 35.45 36.36 35.63 33.68 33.16 28.11 30.95 32.25 30.21 29.42 29.68 29.61 33.27 34.98 37.27 37.36 38.78 40.62 38.71 36.82 35.12 34.37 33.75 33.78 33.79 32.83 33.37 33.22 32.66
41.96 41.77 41.19 41.53 41.75 41.82 41.97 42.97 42.39 39.10 36.55 35.54 32.01 31.45 33.12 30.99 31.34 31.14 30.94 31.51 33.79 35.08 35.66 35.83 34.15 34.34 34.98 32.50 32.23 23.98 28.85 29.55 22.04 20.57 23.29 28.07 29.80 33.71 35.12 35.68 34.90 34.05 34.95 34.19 33.30 33.10 32.66 32.83 32.14 32.64 32.69 32.32 31.67 29.93
41.48 40.95 41.18 40.78 40.98 41.35 41.93 42.54 40.43 37.91 34.87 31.95 32.57 32.14 31.62 31.82 30.46 31.66 32.81 33.07 35.47 38.00 36.34 34.35 33.34 33.85 30.19 27.09 28.90 28.05 24.78 17.42 25.09 24.70 28.36 28.14 29.00 32.42 33.57 33.67 32.64 32.71 33.00 33.03 33.37 31.76 31.32 31.03 30.15 28.54 28.77 28.64 28.30 27.17
41.20 40.75 39.43 40.49 41.04 41.40 42.00 38.63 36.72 38.05 32.02 31.88 32.01 30.44 32.40 31.36 28.51 30.58 32.56 33.54 37.26 38.22 35.33 34.33 28.83 23.82 23.31 25.93 21.48 19.40 20.66 20.51 25.53 28.53 27.21 28.00 31.53 33.35 32.64 31.91 32.02 32.80 33.49 32.66 31.29 30.50 29.59 29.01 27.56 26.21 25.67 25.28 25.40 24.96
40.62 36.47 40.44 40.81 40.92 41.01 40.31 34.58 33.37 31.90 31.88 31.79 30.66 32.99 32.53 29.35 29.23 31.00 34.57 36.42 39.73 36.73 31.80 30.02 24.17 21.33 29.67 21.72 20.21 25.44 23.67 27.59 26.46 25.15 26.59 27.18 30.97 32.15 31.72 30.19 29.96 31.39 31.61 30.37 29.61 29.33 28.35 27.75 26.80 25.35 22.68 22.23 22.19 22.05
36.00 38.64 40.75 40.44 39.87 38.72 36.55 32.62 31.86 31.81 29.49 31.37 30.74 31.12 31.15 31.95 31.86 33.47 35.23 37.97 35.98 32.25 32.14 31.70 30.44 26.32 21.94 19.62 21.58 27.40 27.15 22.00 25.25 27.16 26.90 31.15 31.23 30.04 30.21 28.94 29.61 29.82 28.25 27.49 26.44 24.98 25.16 26.02 25.21 23.26 21.75 20.81 20.34 20.23
38.21 38.30 39.77 40.09 38.90 35.43 31.80 32.50 31.92 28.95 29.40 31.34 31.37 31.90 32.87 33.50 34.84 35.09 36.04 35.47 33.17 33.46 33.02 31.97 29.06 23.48 24.42 25.65 25.58 25.07 25.81 24.23 27.63 27.67 29.12 30.60 30.79 30.01 29.98 30.16 29.28 27.96 26.81 25.56 26.76 26.57 25.56 25.70 24.40 23.10 22.04 21.89 20.72 20.46
39.67 39.08 39.50 39.29 38.27 32.38 29.87 30.63 33.08 30.66 28.22 30.15 32.14 31.17 31.49 31.29 32.87 33.38 33.08 33.05 33.63 33.07 31.38 26.59 26.09 25.99 26.62 27.35 27.92 30.08 28.89 31.10 30.18 27.86 27.42 28.86 30.94 31.12 30.02 29.26 27.24 26.27 25.73 25.17 25.42 26.09 22.86 22.66 22.74 22.38 21.79 21.62 20.85 19.75
37.21 37.10 37.59 36.68 34.70 32.84 30.17 28.55 29.14 29.49 29.99 29.59 31.34 31.63 30.78 32.61 31.97 31.99 31.96 33.43 32.51 31.85 28.17 27.62 27.02 27.86 29.38 29.55 30.87 31.60 30.83 31.86 30.04 31.39 28.47 26.99 28.85 28.31 26.74 26.01 26.03 26.60 25.38 24.52 24.46 24.85 22.63 20.66 20.69 20.35 18.56 20.11 19.67 19.30
34.58 36.95 32.90 33.60 26.96 27.20 28.89 31.06 27.68 29.77 29.45 29.26 30.12 31.41 30.49 30.14 30.85 31.06 31.92 30.90 28.92 28.56 30.25 29.41 28.62 28.33 27.23 26.51 27.47 29.58 30.54 30.86 30.59 30.34 30.80 29.66 26.14 25.96 25.43 25.11 25.98 25.02 24.90 23.63 22.59 20.80 20.13 19.50 19.85 19.87 19.93 18.58 18.61 16.31
34.31 32.35 28.50 24.90 18.96 20.44 23.24 30.69 26.20 27.22 24.74 25.97 28.30 26.58 25.87 27.10 28.53 31.43 26.97 27.37 25.91 27.52 28.58 27.34 26.88 27.13 25.64 25.93 26.45 26.80 28.96 29.27 27.09 26.40 25.91 24.90 25.22 25.55 25.31 25.21 25.13 23.80 21.76 21.24 21.76 20.20 18.70 22.98 22.33 18.53 19.15 16.39 15.02 13.73
31.83 21.12 16.42 16.58 16.92 12.51 23.56 23.11 27.45 25.39 25.73 24.25 23.43 22.05 21.37 23.89 27.13 26.57 22.22 22.05 24.09 27.42 26.31 26.02 25.74 24.35 24.78 23.80 22.51 23.35 24.73 26.14 24.93 24.85 25.45 24.49 22.31 21.56 22.84 22.03 22.25 20.82 21.14 21.26 20.08 18.07 17.27 17.45 20.30 15.66 14.30 13.08 11.88 11.03
14.94 12.53 13.00 5.71 13.82 13.11 11.47 17.95 21.77 22.53 20.47 21.70 21.32 21.22 21.82 23.84 23.73 21.23 19.43 18.74 20.05 18.73 22.10 26.26 24.80 24.38 21.85 21.19 21.45 21.76 24.00 25.28 24.07 21.67 22.32 22.52 20.83 19.77 18.53 19.21 19.51 19.72 21.00 18.90 17.35 16.40 14.25 14.35 13.94 13.44 12.89 11.53 9.51 7.35
7.39 9.74 9.74 9.87 9.86 10.79 13.31 12.26 16.67 19.90 21.59 20.50 20.61 23.10 23.53 23.73 18.75 13.77 13.74 13.11 14.93 14.66 14.79 16.03 21.04 21.97 21.06 22.12 20.85 20.40 19.85 22.89 23.15 20.53 20.17 21.95 21.79 19.65 17.27 16.46 15.59 14.96 17.43 18.15 16.25 14.57 13.75 12.97 12.59 11.19 11.12 12.72 17.26 7.66
5.68 7.41 19.32 23.13 18.73 18.05 14.74 18.21 19.17 19.62 17.67 17.21 19.64 21.08 21.57 17.14 12.80 12.53 14.72 12.79 13.25 14.06 15.94 17.01 20.60 20.21 18.41 17.96 18.63 18.99 19.49 20.69 20.10 18.25 18.68 18.56 18.68 19.55 19.35 18.42 14.94 14.62 17.13 16.32 15.46 15.02 13.42 12.36 11.54 10.68 9.38 7.09 5.23 5.42
16.61 15.67 8.26 11.23 13.44 13.14 8.79 9.36 9.24 9.92 14.99 18.31 20.92 15.06 14.42 11.14 10.20 10.41 11.29 13.72 13.81 15.30 16.97 17.60 18.80 19.56 18.69 18.38 18.66 18.46 18.14 18.36 18.11 18.31 18.18 17.49 18.21 17.89 17.75 18.85 19.69 22.25 16.68 15.01 14.29 13.71 13.55 12.08 10.83 9.83 8.59 6.08 3.83 4.55
14.08 17.97 15.97 3.91 6.26 9.05 6.92 7.18 9.10 13.19 14.75 14.20 14.89 13.35 10.73 9.33 9.11 8.83 11.36 12.28 14.65 17.67 16.40 15.97 16.38 17.92 17.73 18.19 18.84 19.27 19.90 20.02 18.56 15.65 13.68 12.59 11.22 12.90 14.72 16.88 16.63 16.41 15.47 17.34 21.32 15.78 11.30 10.80 10.22 8.54 6.63 6.85 4.32 2.33
12.46 15.68 10.67 3.56 3.33 6.17 6.63 8.18 8.60 11.60 12.34 11.96 13.30 11.15 10.87 9.56 9.79 11.68 11.46 11.13 11.65 11.95 13.74 15.23 17.67 18.40 16.87 16.51 15.46 15.17 15.71 16.06 17.17 17.56 14.75 12.84 11.68 13.19 14.19 15.33 16.18 15.87 14.62 15.09 15.52 17.04 19.70 11.42 11.02 5.74 4.64 4.23 4.08 3.24
16.08 11.72 6.97 8.21 4.90 4.76 6.25 10.60 10.43 12.84 7.45 4.38 7.54 7.96 7.82 7.82 10.14 10.39 9.09 9.28 11.06 14.37 15.69 14.45 14.72 17.28 17.57 17.19 16.72 15.72 13.87 14.30 14.11 15.42 15.54 14.97 14.57 13.31 12.66 12.59 12.87 13.13 12.68 10.98 9.72 8.48 6.01 3.39 0.91 0.07 -0.11 -2.89 -2.61 0.15
16.75 8.85 5.42 4.38 2.57 5.63 6.92 4.41 3.15 2.42 3.01 2.82 1.10 1.57 4.35 9.87 8.38 7.30 8.05 8.53 13.28 13.32 16.71 15.87 14.37 12.69 14.92 15.33 15.78 17.61 18.64 14.53 15.12 15.23 14.36 13.14 11.99 11.32 11.54 11.10 9.96 10.44 10.40 9.05 6.88 5.34 1.52 0.35 0.72 0.37 1.07 -3.20 -4.34 -4.11
9.52 6.46 3.29 1.23 0.04 1.01 4.81 2.03 2.38 -0.04 0.54 -1.93 -0.62 1.48 -0.12 3.55 2.73 2.95 6.95 7.04 6.29 8.51 11.02 12.71 13.94 14.49 14.57 14.85 15.10 16.01 16.07 14.50 17.30 21.05 20.47 18.86 17.74 15.19 12.30 11.53 11.43 10.57 9.87 8.64 6.78 4.89 2.40 -1.68 -1.48 -1.23 -2.67 -5.75 -7.26 -5.54
MSLP
1010.07 1009.40 1008.71 1008.16 1007.59 1007.07 1006.52 1005.85 1005.36 1004.57 1003.80 1003.10 1002.34 1002.02 1001.51 1000.98 1000.52 1001.08 1001.68 1002.08 1002.17 1002.08 1001.23 1001.03 1000.80 1001.05 1001.64 1001.89 1001.87 1002.19 1002.26 1001.80 1001.59 1001.83 1001.88 1001.26 1000.92 1001.20 1001.59 1002.01 1002.13 1002.26 1002.92 1003.07 1003.26 1003.08 1001.99 1000.38 1000.51 1000.65 1001.01 1000.93 1001.03 1001.22
1009.61 1008.89 1008.38 1007.70 1007.13 1006.67 1006.15 1005.63 1005.02 1004.35 1003.53 1002.86 1002.25 1001.72 1001.20 1000.74 1000.32 1000.98 1001.59 1001.97 1002.12 1002.27 1001.52 1001.25 1000.88 1000.99 1001.23 1001.63 1001.85 1001.95 1001.67 1001.06 1000.87 1001.40 1001.58 1001.05 1000.81 1000.59 1000.39 1001.34 1001.42 1001.58 1001.31 1001.75 1002.17 1001.75 1000.94 1000.91 1001.14 1001.16 1001.28 1001.68 1002.17 1002.72
1009.22 1008.46 1007.88 1007.20 1006.75 1006.27 1005.66 1005.17 1004.60 1003.84 1002.90 1002.29 1001.84 1001.31 1000.63 1000.26 1000.11 1000.80 1001.25 1001.73 1002.04 1001.97 1001.34 1001.04 1000.61 1000.89 1001.18 1001.53 1001.68 1001.74 1001.64 1001.39 1001.07 1001.06 1001.05 1001.01 1000.85 1000.69 1000.39 1000.34 1000.60 1000.59 1000.63 1000.87 1001.21 1001.38 1001.19 1001.44 1001.69 1001.73 1001.86 1002.45 1003.08 1003.64
1008.64 1007.97 1007.27 1006.62 1006.19 1005.70 1005.17 1004.58 1003.93 1003.43 1002.64 1002.31 1001.63 1000.92 1000.51 1000.08 999.86 1000.56 1000.95 1001.33 1001.39 1001.38 1000.95 1000.72 1000.50 1000.68 1000.86 1001.23 1001.53 1001.62 1001.44 1001.40 1001.35 1001.28 1001.39 1001.45 1001.10 1000.66 1000.59 1000.55 1000.21 1000.25 1000.48 1000.63 1001.18 1001.52 1001.87 1001.98 1002.04 1002.21 1002.71 1003.26 1003.96 1004.60
1008.00 1007.37 1006.64 1006.03 1005.58 1005.13 1004.67 1004.20 1003.52 1002.89 1002.33 1001.70 1001.08 1000.67 1000.10 999.74 999.75 1000.45 1000.82 1001.08 1000.91 1001.37 1000.63 1000.56 1000.52 1000.63 1000.61 1000.79 1001.17 1001.38 1001.51 1001.60 1001.33 1001.78 1001.74 1001.47 1001.25 1001.21 1001.00 1000.86 1000.29 999.93 999.81 1000.30 1000.30 1000.18 1000.68 1001.29 1002.24 1002.76 1003.49 1004.34 1005.02 1005.58
1007.37 1006.76 1006.16 1005.40 1005.01 1004.64 1004.04 1003.49 1002.93 1002.29 1001.85 1001.51 1000.85 1000.20 999.56 999.51 999.81 1000.32 1000.84 1000.79 1000.73 1001.13 1001.01 1000.75 1000.79 1000.65 1000.52 1000.53 1000.80 1001.10 1001.17 1001.20 1001.02 1000.97 1001.18 1001.19 1001.17 1001.20 1001.07 1000.46 999.11 999.16 999.34 999.56 1000.11 1000.50 1000.76 1001.79 1002.76 1003.48 1004.32 1005.18 1005.97 1006.61
1006.73 1006.15 1005.57 1004.89 1004.45 1004.06 1003.56 1003.03 1002.41 1001.74 1001.15 1000.52 1000.14 999.63 999.40 998.92 999.38 999.85 1000.04 1000.09 1000.09 1000.73 1000.97 1001.06 1000.95 1000.96 1000.90 1000.79 1000.97 1001.05 1001.01 1001.20 1001.27 1001.32 1001.38 1001.36 1001.50 1001.33 1000.88 1000.06 999.09 999.50 999.99 1000.37 1000.61 1001.17 1002.59 1003.02 1003.73 1004.44 1005.13 1005.99 1006.62 1007.41
1005.99 1005.43 1004.89 1004.42 1004.01 1003.67 1003.21 1002.60 1001.90 1001.26 1000.62 1000.07 999.50 999.02 998.83 998.66 999.50 999.78 999.96 1000.06 1000.13 1000.56 1000.79 1001.15 1001.38 1001.38 1001.15 1000.98 1001.19 1001.19 1001.20 1001.35 1001.60 1001.66 1001.73 1001.67 1001.82 1001.52 1000.72 999.51 999.44 999.87 1000.61 1001.28 1001.59 1001.72 1002.34 1003.45 1004.47 1005.47 1006.19 1006.87 1007.67 1008.41
1005.23 1004.74 1004.23 1003.84 1003.54 1003.24 1002.82 1002.09 1001.34 1000.68 1000.07 999.39 998.76 998.68 998.17 998.64 999.10 999.56 1000.11 1000.24 1000.31 1000.73 1000.81 1001.33 1001.30 1001.36 1001.27 1001.49 1001.51 1001.53 1001.50 1001.84 1002.10 1001.93 1002.13 1002.15 1001.65 1000.97 999.51 999.45 999.78 1000.29 1001.03 1002.08 1002.79 1003.09 1003.73 1004.57 1005.68 1006.40 1007.00 1007.69 1008.13 1009.01
1004.50 1004.13 1003.70 1003.37 1003.10 1002.72 1002.26 1001.47 1000.67 1000.10 999.29 998.67 998.65 997.46 997.88 998.18 998.77 999.53 1000.22 1000.62 1000.72 1000.92 1001.07 1001.07 1001.11 1001.68 1001.86 1001.79 1002.17 1002.28 1002.38 1002.72 1002.84 1002.84 1002.76 1002.57 1001.41 999.89 999.41 999.43 999.66 1000.48 1001.42 1002.27 1003.53 1004.79 1005.31 1005.94 1006.49 1007.19 1007.52 1007.92 1008.57 1009.35
1003.84 1003.57 1003.28 1003.05 1002.76 1002.43 1001.69 1000.99 1000.38 999.74 997.81 997.75 997.33 997.78 997.83 998.51 998.56 999.46 1000.00 1000.50 1000.64 1000.91 1000.94 1000.81 1001.06 1001.53 1002.05 1002.00 1002.66 1003.10 1003.33 1003.57 1003.65 1003.54 1003.44 1002.75 1001.65 1000.37 1000.07 999.93 1000.05 1000.74 1001.65 1002.40 1002.77 1003.74 1004.73 1005.33 1006.25 1007.05 1007.92 1008.58 1009.25 1009.94
1003.46 1003.21 1003.00 1002.71 1002.40 1001.95 1001.38 1000.72 1000.19 1000.08 999.79 998.82 998.65 997.69 998.13 998.55 999.08 999.61 1000.08 1000.46 1000.46 1000.36 1000.29 1000.45 1000.76 1001.14 1001.98 1002.08 1002.68 1003.71 1003.92 1004.21 1004.18 1003.99 1004.00 1003.16 1001.54 1001.17 1000.91 1000.87 1001.10 1001.54 1002.24 1002.86 1003.26 1004.06 1005.18 1006.03 1006.76 1007.60 1008.52 1009.37 1010.01 1010.63
1003.36 1003.07 1002.75 1002.40 1001.94 1001.50 1001.00 1000.17 999.71 999.71 998.82 997.82 997.28 997.73 997.73 998.48 998.91 999.15 999.06 999.63 999.81 999.92 1000.14 1000.26 1000.91 1001.38 1002.27 1002.50 1003.26 1003.84 1004.42 1004.76 1004.60 1004.83 1004.03 1002.64 1001.95 1001.86 1001.66 1001.73 1002.03 1002.26 1002.73 1003.34 1004.09 1004.77 1005.71 1006.74 1007.57 1008.26 1009.24 1009.99 1010.58 1011.23
1003.30 1002.84 1002.44 1002.06 1001.64 1001.12 1000.34 999.58 999.37 999.38 999.03 997.67 997.63 997.52 997.02 998.07 997.64 997.34 997.63 998.12 998.34 998.76 999.64 1000.09 1000.76 1001.49 1002.33 1002.87 1003.58 1004.31 1005.11 1005.18 1005.45 1005.18 1003.34 1002.22 1002.28 1002.38 1002.45 1002.51 1002.75 1003.27 1003.75 1004.29 1004.99 1005.83 1006.77 1007.59 1008.58 1009.31 1009.93 1010.58 1011.19 1011.95
1003.23 1002.56 1002.11 1001.83 1001.36 1000.52 999.72 999.14 999.27 999.25 998.54 997.92 997.61 997.11 997.02 997.17 997.46 997.56 997.48 997.66 998.03 998.65 999.34 1000.31 1001.16 1001.88 1002.81 1003.69 1004.20 1005.29 1005.82 1005.60 1004.77 1003.31 1002.58 1002.61 1002.66 1002.80 1003.15 1003.41 1003.81 1004.30 1004.76 1005.35 1006.04 1006.86 1007.83 1008.60 1009.39 1010.32 1010.98 1011.51 1012.06 1012.70
1003.09 1002.34 1002.02 1001.65 1000.91 1000.16 999.40 999.36 999.09 998.66 998.26 997.91 997.57 997.39 997.38 997.64 997.97 997.99 997.97 998.03 998.08 998.76 999.30 1000.04 1001.46 1002.69 1003.25 1003.71 1004.53 1004.66 1005.13 1004.23 1003.08 1002.66 1002.89 1002.95 1003.22 1003.49 1003.71 1004.06 1004.54 1004.99 1005.44 1006.15 1006.98 1007.76 1008.60 1009.44 1010.31 1011.27 1011.99 1012.56 1013.01 1013.42
1003.05 1002.68 1002.08 1001.40 1000.66 999.78 999.56 999.59 999.31 998.60 998.40 998.09 997.90 997.24 997.14 997.04 997.26 997.80 997.91 997.87 997.91 998.39 999.20 1000.05 1001.47 1002.43 1003.09 1003.78 1003.99 1003.67 1003.34 1002.78 1002.78 1003.12 1003.15 1003.41 1003.58 1003.95 1004.34 1004.85 1005.37 1005.85 1006.40 1007.18 1007.97 1008.83 1009.64 1010.44 1011.18 1011.99 1012.91 1013.70 1014.00 1014.53
1003.12 1002.64 1001.95 1001.30 1000.52 999.84 999.74 999.62 999.22 998.86 998.61 998.46 998.14 997.99 997.60 997.27 997.40 997.79 997.88 997.94 998.19 998.65 999.14 999.89 1000.55 1001.86 1002.53 1002.84 1002.57 1001.89 1002.43 1002.94 1002.98 1003.39 1003.63 1003.80 1004.15 1004.64 1005.10 1005.66 1006.30 1006.81 1007.61 1008.48 1009.19 1009.92 1010.62 1011.31 1012.14 1013.14 1013.78 1014.52 1014.99 1015.41
1002.89 1002.32 1001.82 1001.34 1000.85 1000.52 1000.33 999.99 999.85 999.24 998.96 998.83 998.56 998.35 998.09 997.96 997.87 997.82 997.98 998.32 998.50 998.79 999.41 999.84 1000.47 1001.34 1001.58 1001.49 1001.49 1001.61 1002.24 1002.47 1003.03 1003.74 1004.13 1004.43 1004.77 1005.37 1006.02 1006.63 1007.32 1008.07 1008.75 1009.48 1010.17 1010.96 1011.62 1012.17 1012.90 1013.60 1014.25 1014.68 1015.22 1015.80
1002.15 1002.05 1001.76 1001.20 1000.87 1000.80 1000.53 1000.32 1000.14 999.59 999.27 999.12 998.73 998.75 998.68 998.55 998.61 998.56 998.63 998.90 999.26 999.70 999.96 1000.27 1000.76 1001.22 1001.39 1001.48 1001.42 1001.45 1002.06 1002.43 1002.85 1003.52 1004.85 1005.50 1005.80 1006.15 1006.90 1007.45 1008.30 1009.08 1009.79 1010.57 1011.29 1011.89 1012.59 1013.35 1013.83 1014.18 1014.56 1015.06 1015.60 1016.19
1002.29 1002.11 1001.70 1001.42 1001.29 1001.38 1001.52 1001.36 1000.72 1000.58 1000.01 999.44 999.24 998.99 998.88 998.87 999.05 999.28 999.56 999.68 1000.19 1000.67 1001.05 1001.21 1001.61 1001.91 1001.91 1001.82 1001.63 1001.80 1002.19 1002.77 1003.01 1002.87 1003.95 1005.57 1006.58 1006.90 1007.83 1008.57 1009.05 1009.78 1010.47 1011.34 1012.03 1012.83 1013.47 1014.10 1014.57 1014.85 1015.31 1015.85 1016.38 1016.81
1003.01 1002.68 1002.49 1001.91 1001.98 1001.92 1001.88 1001.87 1001.53 1000.98 1000.59 1000.09 999.74 999.30 999.06 999.28 999.50 999.86 1000.04 1000.47 1001.22 1001.85 1001.85 1001.93 1002.39 1002.42 1002.56 1002.82 1002.95 1002.69 1002.95 1003.25 1003.74 1004.47 1005.25 1005.92 1007.19 1007.98 1008.76 1009.29 1009.69 1010.60 1011.27 1011.93 1012.60 1013.42 1014.19 1014.67 1015.07 1015.61 1016.12 1016.77 1017.21 1017.60
1003.25 1003.19 1003.22 1003.37 1003.30 1002.99 1002.78 1002.05 1001.77 1001.47 1001.06 1000.61 1000.18 999.83 999.87 999.97 1000.24 1000.40 1001.16 1001.99 1002.78 1003.09 1002.98 1003.13 1003.29 1003.40 1003.67 1004.01 1003.99 1003.90 1003.78 1004.09 1005.01 1005.76 1006.40 1007.24 1008.08 1008.83 1009.36 1009.98 1010.52 1011.24 1012.27 1013.10 1013.45 1014.13 1014.72 1015.18 1015.79 1016.39 1016.86 1017.47 1017.91 1018.43
1003.77 1004.37 1004.65 1005.07 1004.88 1004.47 1003.50 1002.98 1002.53 1002.18 1001.66 1001.18 1000.87 1000.69 1000.88 1000.91 1001.01 1001.43 1002.60 1003.69 1004.27 1004.09 1004.17 1004.24 1004.34 1004.22 1004.42 1005.03 1005.40 1005.47 1005.38 1005.34 1006.06 1006.91 1007.50 1007.86 1009.03 1010.18 1010.62 1011.17 1011.63 1012.22 1012.70 1013.45 1014.15 1014.89 1015.52 1015.98 1016.43 1017.03 1017.56 1018.13 1018.70 1019.25
1004.95 1006.12 1006.48 1006.32 1005.86 1005.52 1004.95 1004.10 1003.42 1002.91 1002.51 1002.21 1001.83 1001.71 1001.83 1001.87 1001.97 1003.05 1004.35 1005.60 1005.96 1006.00 1005.79 1005.38 1005.12 1005.05 1005.37 1006.22 1006.60 1006.72 1006.50 1006.47 1006.90 1007.81 1008.96 1009.31 1010.14 1011.02 1011.78 1012.35 1012.90 1013.29 1013.57 1014.08 1015.04 1015.70 1016.45 1016.85 1017.32 1017.78 1018.30 1018.80 1019.39 1019.95
1006.14 1006.64 1006.91 1006.88 1006.67 1006.43 1006.12 1005.44 1004.74 1004.16 1003.59 1003.22 1003.09 1002.88 1002.78 1002.87 1003.77 1005.43 1006.89 1007.83 1007.93 1007.92 1007.77 1007.27 1006.67 1006.52 1006.79 1007.06 1007.37 1007.81 1008.17 1007.97 1008.01 1008.77 1010.28 1010.42 1010.87 1011.38 1012.22 1012.81 1013.58 1014.47 1014.40 1014.69 1015.30 1016.13 1016.96 1017.52 1018.05 1018.60 1019.09 1019.22 1019.58 1020.35
1006.70 1006.80 1006.75 1006.71 1006.90 1006.92 1006.74 1006.16 1005.60 1005.15 1004.96 1004.81 1004.54 1004.15 1004.11 1005.04 1006.69 1008.15 1008.84 1009.57 1009.55 1009.51 1008.98 1008.28 1007.61 1007.54 1008.01 1008.49 1008.80 1009.01 1008.98 1008.94 1009.50 1010.56 1011.28 1011.67 1011.98 1012.10 1012.34 1012.84 1013.75 1014.44 1014.63 1015.09 1015.73 1016.35 1017.11 1017.89 1018.51 1019.11 1019.72 1020.17 1020.50 1020.92
1006.40 1006.76 1007.18 1007.49 1007.43 1007.79 1007.77 1007.47 1007.11 1007.05 1006.54 1006.35 1005.90 1006.18 1006.81 1008.07 1009.47 1010.45 1010.80 1010.86 1010.45 1009.81 1009.38 1009.09 1008.77 1008.76 1009.12 1009.44 1009.68 1009.89 1010.33 1010.69 1011.15 1011.66 1012.18 1012.79 1013.20 1013.31 1013.34 1013.62 1014.10 1014.59 1015.19 1015.74 1016.34 1016.92 1017.57 1018.17 1018.82 1019.44 1019.94 1020.42 1020.90 1021.21
1006.50 1006.84 1007.40 1008.18 1008.35 1008.51 1008.87 1008.75 1008.66 1008.54 1008.59 1008.22 1008.07 1008.64 1009.58 1010.58 1011.39 1011.46 1011.28 1011.11 1010.67 1010.10 1010.07 1009.98 1010.11 1010.03 1010.10 1010.34 1010.67 1011.02 1011.21 1011.39 1011.64 1012.15 1012.74 1013.70 1014.37 1015.16 1014.92 1014.91 1015.23 1015.55 1015.94 1016.44 1017.04 1017.61 1018.22 1018.74 1019.34 1019.89 1020.35 1020.70 1021.07 1021.22
1006.86 1007.19 1008.03 1008.84 1009.28 1009.59 1009.75 1009.75 1009.51 1009.40 1009.43 1009.53 1009.57 1010.20 1010.86 1011.74 1012.31 1012.44 1012.15 1011.76 1011.33 1011.25 1011.14 1010.94 1010.75 1010.78 1010.99 1011.13 1011.66 1012.12 1012.27 1012.15 1012.03 1012.19 1012.83 1013.88 1014.85 1015.50 1015.69 1015.82 1016.08 1016.49 1016.82 1017.17 1017.65 1018.16 1018.85 1019.34 1019.78 1020.40 1020.84 1021.07 1021.39 1021.73
1007.18 1007.64 1008.59 1009.20 1009.99 1010.23 1010.42 1010.21 1010.13 1010.08 1010.30 1010.60 1010.61 1010.92 1011.62 1012.15 1012.61 1012.93 1012.88 1012.76 1012.39 1011.89 1011.68 1011.71 1011.70 1011.73 1011.79 1012.04 1012.28 1012.42 1012.79 1013.02 1012.94 1012.85 1013.12 1013.99 1014.93 1015.61 1016.10 1016.52 1016.83 1017.15 1017.62 1018.05 1018.55 1019.20 1019.77 1020.33 1020.75 1021.14 1021.49 1021.77 1021.97 1022.03
1007.48 1008.20 1009.28 1009.98 1010.67 1010.74 1010.55 1010.77 1010.93 1011.13 1011.30 1011.52 1012.00 1012.18 1012.34 1012.45 1013.02 1013.55 1013.78 1013.44 1012.88 1012.67 1012.49 1012.47 1012.50 1012.80 1012.84 1012.86 1012.76 1012.63 1012.78 1013.38 1013.54 1013.79 1014.08 1014.74 1015.49 1016.16 1016.73 1017.21 1017.46 1017.79 1018.31 1018.87 1019.40 1020.09 1020.63 1021.02 1021.39 1021.65 1021.82 1021.98 1022.02 1022.00
1008.28 1008.85 1009.64 1010.16 1010.80 1011.04 1011.03 1011.16 1011.64 1012.02 1012.26 1012.66 1013.08 1013.05 1013.12 1013.36 1013.95 1014.37 1014.27 1014.17 1014.09 1013.83 1013.55 1013.36 1013.33 1013.36 1013.39 1013.39 1013.42 1013.57 1013.87 1014.02 1014.15 1014.43 1014.96 1015.49 1016.07 1016.74 1017.25 1017.53 1017.94 1018.50 1018.97 1019.55 1020.18 1020.64 1021.02 1021.31 1021.64 1021.89 1022.09 1022.18 1022.11 1021.99
Wind_Speed
27 27 25 24 23 22 24 24 26 28 26 24 23 21 20 20 14 6 2 5 3 2 2 2 2 2 1 2 3 4 5 3 2 3 1 3 3 6 5 8 6 5 6 4 3 1 7 4 3 2 2 3 4 8
27 27 27 23 24 22 23 24 26 27 25 23 22 22 19 19 13 9 2 2 3 2 2 2 2 1 2 3 3 1 1 3 4 4 4 1 2 1 3 4 7 6 6 7 8 7 2 4 4 0 2 4 6 10
28 27 26 25 23 22 23 24 25 27 26 24 23 22 17 19 12 13 3 3 2 1 3 2 3 5 6 3 1 2 1 2 2 2 2 0 2 0 3 1 4 3 1 2 4 3 4 5 3 1 5 8 9 9
28 27 26 25 21 22 22 24 26 27 25 24 23 21 20 19 13 11 3 3 1 3 3 3 2 3 3 6 4 1 2 1 2 2 3 1 1 0 2 2 1 2 6 6 2 3 3 2 4 7 10 11 10 10
28 26 25 23 22 22 23 24 25 28 25 24 23 21 21 17 13 8 2 4 2 1 2 3 3 2 3 5 8 6 3 1 2 2 3 3 2 2 1 2 3 5 6 5 4 9 4 5 9 10 13 10 9 14
26 25 25 23 21 21 23 24 25 27 25 23 23 22 14 15 15 3 2 4 5 3 2 1 1 2 2 5 8 7 5 5 1 2 2 1 2 1 3 4 3 7 5 3 4 5 7 12 10 8 12 11 9 11
26 25 24 23 21 21 22 24 26 26 25 24 23 22 22 13 7 3 2 1 9 5 2 1 1 2 3 2 1 3 2 1 1 1 1 2 2 1 2 4 4 7 7 7 10 16 9 6 7 11 12 13 13 11
27 25 24 22 20 19 21 24 26 26 25 25 23 14 21 16 9 1 1 3 4 3 1 3 1 2 1 2 2 2 2 2 3 1 1 1 1 1 5 5 6 9 9 7 5 4 8 13 14 12 10 11 11 10
24 23 23 20 18 20 22 25 25 25 26 26 23 23 5 3 3 3 8 7 2 2 3 2 5 4 1 1 1 1 2 2 1 1 2 1 3 6 5 5 8 9 7 10 8 9 12 12 12 9 9 8 12 8
22 21 20 16 17 20 23 24 24 26 28 19 4 2 3 3 19 16 3 2 2 0 2 2 1 2 1 1 2 1 2 2 1 1 2 2 5 4 3 2 7 9 15 14 14 8 9 8 10 8 7 8 9 8
20 18 15 15 17 20 22 24 24 27 13 3 2 2 1 18 3 1 3 3 2 2 4 4 3 3 1 3 3 2 2 1 1 2 2 2 5 3 5 3 6 11 12 9 7 9 7 14 14 12 10 10 9 8
14 14 14 16 18 21 21 23 23 5 3 6 10 3 3 2 3 4 4 2 3 5 2 5 4 4 2 2 4 0 2 1 3 1 1 4 5 2 1 4 8 10 9 9 12 15 14 11 11 12 10 9 9 9
15 14 16 18 19 19 24 24 22 19 12 5 2 2 4 1 5 10 11 5 6 6 5 4 4 4 2 1 4 3 3 3 2 2 5 6 2 0 2 5 7 7 11 13 15 14 16 14 11 12 11 8 9 8
16 17 18 18 16 24 25 24 18 8 5 1 4 6 5 6 7 5 5 6 4 5 8 5 4 4 2 3 3 5 1 3 1 3 8 3 6 6 5 5 9 10 13 15 15 15 15 15 12 10 9 8 9 8
19 20 17 9 23 26 27 20 13 3 1 2 4 5 4 3 4 3 3 5 2 9 8 5 4 4 2 4 3 4 2 4 6 7 3 2 4 7 7 7 9 11 12 13 13 13 13 13 12 10 8 8 8 8
22 17 4 21 25 27 24 8 3 1 0 1 1 3 2 3 2 3 2 5 4 8 3 4 5 4 2 5 4 7 8 8 5 3 2 4 6 6 7 8 8 10 12 12 11 11 11 11 11 10 8 8 7 8
17 2 18 24 25 26 10 2 2 1 1 1 0 1 1 2 3 3 4 3 8 8 4 4 6 7 4 3 3 6 7 3 3 1 2 4 6 8 9 9 8 11 12 12 11 10 10 10 10 10 11 6 8 8
3 11 22 22 21 10 2 2 2 2 2 1 1 1 1 2 4 4 3 6 4 2 3 4 5 5 6 8 5 4 3 1 2 3 3 6 7 9 8 10 9 10 11 11 10 7 8 9 10 7 9 6 7 8
14 12 17 21 11 3 3 2 2 3 2 1 0 2 2 2 2 4 2 3 2 3 5 0 4 4 4 2 2 1 4 3 6 5 5 7 9 11 11 11 12 12 11 8 9 7 5 7 7 6 5 5 6 5
15 13 17 15 7 3 3 3 2 3 4 3 1 1 1 2 2 3 3 3 3 2 2 2 2 1 1 0 0 3 3 7 10 11 7 7 7 11 10 9 8 10 10 10 9 11 7 7 5 5 5 6 6 5
10 7 13 6 3 4 2 3 3 2 3 2 2 1 1 1 2 2 2 2 3 1 1 2 3 2 2 1 2 4 6 6 4 6 12 10 6 9 9 7 7 7 7 6 7 8 8 6 4 6 6 7 6 5
3 14 3 4 2 3 1 2 3 3 3 2 2 3 2 2 2 2 1 3 3 2 2 2 2 2 5 6 4 5 8 12 12 11 16 13 8 8 7 5 7 7 6 5 6 7 6 5 6 6 7 6 7 5
8 5 3 4 5 5 3 2 4 4 3 4 3 1 2 2 2 1 3 3 2 2 3 3 4 7 8 5 7 9 7 12 9 8 9 8 8 7 7 7 6 8 8 5 6 7 6 10 10 7 7 6 6 5
4 4 4 4 3 4 4 3 2 3 3 3 3 2 3 2 2 3 3 3 3 3 3 4 3 7 8 7 6 6 5 8 10 9 6 9 9 7 7 7 6 6 5 7 7 7 6 5 11 6 5 6 5 5
6 7 5 6 4 5 5 5 4 3 4 3 4 3 3 3 2 3 3 3 4 5 6 3 5 5 6 6 5 6 7 5 9 11 7 7 9 8 8 7 7 5 5 8 7 8 6 5 5 6 5 5 6 5
2 4 3 1 4 3 3 3 4 4 3 3 3 2 2 2 4 4 3 4 4 4 5 5 4 5 7 5 6 6 4 3 8 11 6 4 4 6 7 8 6 3 3 5 8 9 7 6 6 7 5 6 9 6
0 3 2 2 2 2 3 3 3 1 3 3 3 4 3 3 4 3 2 3 3 3 4 5 3 5 5 6 6 5 6 8 9 8 7 7 6 5 4 7 7 3 4 6 6 8 9 7 6 6 6 4 3 4
2 1 2 3 2 0 1 2 3 3 3 4 4 5 3 4 3 2 2 2 4 5 3 4 6 6 6 6 6 7 8 9 11 11 10 10 8 7 8 8 8 17 8 7 7 6 6 6 6 6 6 4 3 2
1 1 3 2 3 2 2 1 0 2 3 2 3 3 2 3 2 3 3 5 5 3 4 5 5 5 7 7 7 6 4 2 4 9 11 7 4 5 4 6 7 6 5 7 16 12 10 7 6 6 6 4 3 1
2 1 3 2 3 0 1 1 1 0 2 2 1 3 3 2 1 2 3 4 5 4 3 3 3 3 5 7 6 6 5 4 4 4 6 6 5 4 4 6 7 6 5 6 7 9 13 7 7 4 4 3 3 2
2 2 3 2 2 0 0 1 1 1 2 2 2 3 2 2 2 2 3 3 3 2 3 5 5 5 5 5 4 4 4 4 4 7 10 10 8 7 6 6 5 6 6 7 6 6 5 4 3 4 4 3 3 3
2 3 4 2 1 2 1 2 1 2 3 3 3 2 1 1 2 2 3 4 2 4 6 4 4 4 3 3 3 5 11 4 6 7 10 9 8 7 7 5 5 6 7 7 6 5 4 5 4 3 2 2 2 4
3 3 3 3 3 1 2 4 4 2 4 3 2 1 1 2 2 1 1 2 2 2 3 3 4 4 5 5 5 5 7 5 11 17 19 18 17 13 7 6 6 6 7 6 5 5 5 4 3 2 2 2 3 5
Wind_Direction
327 326 322 318 320 319 325 326 325 329 329 330 332 320 317 315 191 167 122 180 166 219 246 343 350 181 128 193 177 156 119 227 113 108 182 238 151 189 148 154 174 147 148 171 113 177 266 126 47 139 176 353 27 50
323 324 322 318 317 318 321 322 324 326 329 329 328 318 310 313 190 167 148 168 167 261 335 296 324 287 193 158 136 223 344 176 155 123 217 225 107 152 165 162 183 170 187 167 177 210 154 63 79 0 107 109 70 95
320 318 318 315 315 318 319 321 322 325 330 330 324 315 315 316 205 178 126 132 135 240 261 208 213 156 141 165 181 140 274 306 44 337 104 337 122 195 150 184 120 175 124 174 158 189 165 144 81 331 109 104 93 98
318 316 316 319 315 317 318 320 322 323 326 327 322 317 314 310 200 167 153 166 154 229 246 124 113 134 113 162 168 89 83 97 95 46 76 330 293 333 8 300 122 168 131 166 119 113 92 213 170 119 97 95 93 84
317 315 315 316 315 316 317 318 320 321 324 326 322 315 315 310 191 174 126 191 195 309 347 102 125 142 237 189 180 170 190 201 151 142 188 212 114 158 53 345 236 191 179 162 211 179 175 159 145 126 117 115 104 107
318 316 313 316 314 315 317 320 319 320 323 321 320 319 308 290 169 133 204 191 189 173 282 186 133 112 307 187 176 192 189 211 284 187 170 114 45 102 167 206 233 156 98 50 156 103 100 118 118 118 117 120 110 106
315 316 314 314 315 313 316 319 317 319 322 324 319 316 316 212 165 172 193 24 160 139 213 110 148 102 337 307 151 139 176 177 321 162 220 132 178 177 266 219 188 131 109 98 107 103 82 125 136 113 107 104 102 94
311 312 310 311 310 313 316 316 317 318 320 321 313 275 303 146 110 175 59 124 97 112 248 133 126 190 176 202 117 314 145 159 13 107 346 181 100 235 250 225 133 126 121 123 76 33 121 110 103 100 101 110 103 103
307 308 311 314 313 316 317 314 319 325 324 315 298 286 130 141 152 129 124 88 49 117 145 137 155 177 199 65 84 63 357 162 293 220 107 40 196 225 229 184 163 155 152 133 67 74 103 109 112 111 121 114 111 111
312 311 313 316 318 319 316 318 330 331 319 305 297 177 154 166 122 130 84 81 34 22 94 158 101 133 41 162 71 85 8 70 169 218 359 206 257 272 195 183 162 142 131 129 115 106 109 105 127 130 133 116 111 113
314 313 319 319 320 319 321 326 338 340 307 183 189 117 148 143 104 141 128 158 154 166 179 172 139 130 239 126 117 2 138 352 134 267 256 252 260 234 5 94 130 125 142 151 104 106 124 139 142 129 105 100 104 106
324 324 322 321 323 319 322 330 338 355 278 289 292 97 94 143 83 126 170 142 203 196 137 146 148 128 146 109 107 152 109 68 217 28 283 258 252 356 23 114 105 124 136 121 125 125 127 117 112 108 107 106 100 105
330 327 324 324 323 326 326 329 336 332 315 255 137 137 174 117 146 187 182 189 175 160 183 168 128 122 111 80 75 112 124 180 93 185 238 231 175 66 103 110 115 120 117 109 105 102 101 100 97 110 109 102 105 98
327 326 325 329 330 327 326 330 341 337 278 166 154 196 164 171 218 183 161 151 185 125 132 121 102 116 135 73 145 97 81 106 158 228 235 223 170 143 103 89 103 106 110 110 108 106 105 106 100 93 97 103 105 97
326 325 329 344 330 329 328 335 336 263 247 184 194 194 200 83 41 35 103 101 87 144 139 109 65 89 76 93 76 111 103 233 219 230 209 167 127 120 116 116 111 114 117 113 114 110 109 105 101 90 78 85 92 97
328 321 339 333 326 329 332 345 342 215 300 266 257 117 92 91 75 108 100 125 145 151 85 69 114 87 143 130 124 205 154 218 237 191 149 121 127 127 120 114 116 119 119 113 108 108 106 105 106 104 86 78 81 88
329 292 324 327 329 328 351 17 320 265 292 255 130 268 59 74 125 139 167 165 159 156 147 132 117 183 113 128 213 183 208 202 153 126 110 117 133 124 114 107 108 112 107 105 102 95 96 103 103 96 90 71 79 85
281 310 318 329 336 331 334 13 335 1 42 345 230 104 18 42 110 129 132 154 140 134 122 171 124 144 178 173 217 210 122 172 98 101 107 113 102 108 110 107 96 99 95 89 92 89 95 95 92 96 107 111 100 92
314 317 324 334 337 316 326 343 354 344 29 335 51 345 14 57 17 90 122 100 72 101 108 59 109 174 210 217 147 99 134 144 133 119 106 95 106 108 102 96 98 96 97 99 100 94 82 88 109 118 128 115 109 106
321 321 336 336 357 344 320 3 301 325 359 353 341 41 19 55 29 61 93 74 73 82 59 73 131 119 85 139 328 126 135 138 134 116 100 94 103 105 102 111 106 107 96 92 92 102 92 85 73 95 103 106 106 100
329 339 334 0 14 34 21 349 313 352 314 343 337 311 81 76 87 82 75 33 66 94 119 51 66 57 9 34 72 106 108 144 149 133 134 122 107 107 101 92 97 100 106 107 110 104 92 101 98 82 86 89 87 82
301 340 317 341 352 339 72 28 295 299 290 327 314 310 96 109 107 68 88 69 58 38 10 85 113 101 58 41 19 53 100 95 90 98 101 107 113 107 105 112 109 100 93 102 109 110 105 99 96 93 96 94 90 92
335 350 349 354 10 17 316 351 357 352 319 344 320 13 28 65 58 308 79 62 69 5 18 56 79 90 98 75 66 53 74 107 100 96 96 92 86 85 89 80 90 109 101 79 97 106 109 117 114 105 102 95 89 71
48 40 35 5 30 307 325 347 334 324 325 346 351 28 10 9 321 75 81 59 359 15 64 69 107 116 88 61 59 58 61 101 100 86 86 104 97 77 80 84 81 81 99 112 103 99 101 107 117 103 97 100 98 104
49 329 59 336 330 14 360 334 342 341 345 340 336 15 355 304 75 67 66 51 14 6 356 33 40 55 98 102 85 57 33 79 108 100 65 89 109 96 80 75 73 64 96 111 112 110 99 94 95 102 105 107 112 104
62 290 86 234 288 57 315 340 351 339 310 333 358 305 274 327 56 57 55 0 357 8 351 357 16 80 70 63 105 84 46 45 96 91 66 65 94 126 134 127 118 51 35 108 122 120 112 105 107 105 101 103 115 110
294 277 199 155 225 315 321 329 321 337 359 353 339 311 345 49 57 49 47 28 343 336 322 322 337 85 97 93 78 60 54 61 75 89 84 66 56 54 104 128 126 140 107 102 105 121 126 124 116 110 107 89 95 108
191 153 168 256 60 133 176 350 31 10 341 346 299 20 32 16 61 31 358 326 327 324 4 26 41 72 86 83 85 89 83 94 99 100 88 61 49 54 72 87 102 108 95 94 97 97 104 112 117 121 120 121 122 99
143 142 96 15 350 51 75 103 97 42 352 299 350 54 70 55 1 339 346 324 306 340 59 66 59 65 75 70 63 59 65 89 132 113 102 103 84 37 17 81 87 86 83 100 108 107 108 107 105 101 101 109 128 132
210 46 95 67 105 147 240 21 71 6 46 40 65 115 110 91 51 335 340 3 34 44 27 24 32 78 95 100 93 68 30 24 29 107 123 126 128 133 94 91 92 94 91 89 92 93 92 72 83 60 64 58 43 23
102 86 70 64 121 286 151 324 331 45 46 51 346 69 73 131 117 38 22 352 335 344 70 63 51 40 76 80 84 101 86 21 42 76 96 109 112 103 97 90 85 88 95 94 90 88 89 80 85 94 88 60 358 24
156 143 128 117 267 284 334 57 64 66 353 52 8 53 15 180 83 45 4 334 349 54 64 73 86 73 46 58 45 55 96 99 94 103 105 105 100 96 98 99 91 92 94 93 93 92 93 103 101 93 90 65 356 322
61 65 57 90 49 13 300 79 24 29 22 50 22 8 70 43 158 290 323 35 38 20 37 53 66 68 62 64 78 90 93 104 125 121 118 120 122 120 108 98 96 96 100 101 106 116 109 107 97 77 58 3 315 306